Wetterdaten: Dienstag, 05.10.2010
Datum Zeit Temp. A. Feuchte A. Luftdruck Regen Wind Richtung Richtung Sonnenschein UV Solar Windben
05.10.2010 00:00 13,8 C 82 % 1002,3 hPa 0,0 mm 1,6 km/h (1 Bft) O-SO 112 0 min 0 UV-I 0 W/m 9,7 km/h (2 Bft)
05.10.2010 00:10 13,8 C 82 % 1002,2 hPa 0,0 mm 1,6 km/h (1 Bft) O-SO 112 0 min 0 UV-I 0 W/m 6,4 km/h (2 Bft)
05.10.2010 00:20 13,9 C 81 % 1002,3 hPa 0,0 mm 1,6 km/h (1 Bft) O-SO 112 0 min 0 UV-I 0 W/m 11,3 km/h (2 Bft)
05.10.2010 00:30 13,9 C 81 % 1002,1 hPa 0,0 mm 3,2 km/h (1 Bft) O-SO 112 0 min 0 UV-I 0 W/m 11,3 km/h (2 Bft)
05.10.2010 00:40 13,8 C 82 % 1002,1 hPa 0,0 mm 3,2 km/h (1 Bft) O-SO 112 0 min 0 UV-I 0 W/m 9,7 km/h (2 Bft)
05.10.2010 00:50 13,7 C 82 % 1002,2 hPa 0,0 mm 3,2 km/h (1 Bft) O-SO 112 0 min 0 UV-I 0 W/m 16,1 km/h (3 Bft)
05.10.2010 01:00 13,7 C 82 % 1002,1 hPa 0,0 mm 4,8 km/h (1 Bft) O-SO 112 0 min 0 UV-I 0 W/m 11,3 km/h (2 Bft)
05.10.2010 01:10 13,7 C 82 % 1002,1 hPa 0,0 mm 3,2 km/h (1 Bft) O-SO 112 0 min 0 UV-I 0 W/m 11,3 km/h (2 Bft)
05.10.2010 01:20 13,5 C 83 % 1002,3 hPa 0,0 mm 1,6 km/h (1 Bft) O 90 0 min 0 UV-I 0 W/m 6,4 km/h (2 Bft)
05.10.2010 01:30 13,3 C 83 % 1002,5 hPa 0,0 mm 0,0 km/h (0 Bft) O 90 0 min 0 UV-I 0 W/m 3,2 km/h (1 Bft)
05.10.2010 01:40 12,9 C 84 % 1002,3 hPa 0,0 mm 0,0 km/h (0 Bft) O 90 0 min 0 UV-I 0 W/m 1,6 km/h (1 Bft)
05.10.2010 01:50 12,4 C 86 % 1002,3 hPa 0,0 mm 0,0 km/h (0 Bft) O 90 0 min 0 UV-I 0 W/m 1,6 km/h (1 Bft)
05.10.2010 02:00 12,2 C 86 % 1002,3 hPa 0,0 mm 0,0 km/h (0 Bft) N 0 0 min 0 UV-I 0 W/m 0,0 km/h (0 Bft)
05.10.2010 02:10 11,9 C 87 % 1002,3 hPa 0,0 mm 0,0 km/h (0 Bft) O 90 0 min 0 UV-I 0 W/m 4,8 km/h (1 Bft)
05.10.2010 02:20 11,9 C 88 % 1002,2 hPa 0,0 mm 1,6 km/h (1 Bft) O 90 0 min 0 UV-I 0 W/m 4,8 km/h (1 Bft)
05.10.2010 02:30 12,1 C 88 % 1002,2 hPa 0,0 mm 1,6 km/h (1 Bft) O-SO 112 0 min 0 UV-I 0 W/m 6,4 km/h (2 Bft)
05.10.2010 02:40 12,2 C 88 % 1002,1 hPa 0,0 mm 1,6 km/h (1 Bft) O-NO 67 0 min 0 UV-I 0 W/m 4,8 km/h (1 Bft)
05.10.2010 02:50 12,2 C 88 % 1002,1 hPa 0,0 mm 1,6 km/h (1 Bft) O-SO 112 0 min 0 UV-I 0 W/m 8,0 km/h (2 Bft)
05.10.2010 03:00 12,3 C 87 % 1001,9 hPa 0,0 mm 1,6 km/h (1 Bft) O 90 0 min 0 UV-I 0 W/m 6,4 km/h (2 Bft)
05.10.2010 03:10 12,3 C 88 % 1001,9 hPa 0,0 mm 3,2 km/h (1 Bft) O-SO 112 0 min 0 UV-I 0 W/m 9,7 km/h (2 Bft)
05.10.2010 03:20 12,3 C 87 % 1002,0 hPa 0,0 mm 1,6 km/h (1 Bft) O-SO 112 0 min 0 UV-I 0 W/m 6,4 km/h (2 Bft)
05.10.2010 03:30 12,4 C 87 % 1002,0 hPa 0,0 mm 1,6 km/h (1 Bft) O 90 0 min 0 UV-I 0 W/m 6,4 km/h (2 Bft)
05.10.2010 03:40 12,4 C 87 % 1002,1 hPa 0,0 mm 3,2 km/h (1 Bft) O 90 0 min 0 UV-I 0 W/m 8,0 km/h (2 Bft)
05.10.2010 03:50 12,5 C 87 % 1002,1 hPa 0,0 mm 1,6 km/h (1 Bft) O 90 0 min 0 UV-I 0 W/m 8,0 km/h (2 Bft)
05.10.2010 04:00 12,6 C 87 % 1002,2 hPa 0,0 mm 1,6 km/h (1 Bft) O-SO 112 0 min 0 UV-I 0 W/m 9,7 km/h (2 Bft)
05.10.2010 04:10 12,7 C 87 % 1002,1 hPa 0,0 mm 1,6 km/h (1 Bft) SO 135 0 min 0 UV-I 0 W/m 4,8 km/h (1 Bft)
05.10.2010 04:20 12,8 C 86 % 1002,2 hPa 0,0 mm 0,0 km/h (0 Bft) O-SO 112 0 min 0 UV-I 0 W/m 3,2 km/h (1 Bft)
05.10.2010 04:30 12,8 C 86 % 1002,0 hPa 0,0 mm 0,0 km/h (0 Bft) O-SO 112 0 min 0 UV-I 0 W/m 1,6 km/h (1 Bft)
05.10.2010 04:40 12,7 C 87 % 1002,2 hPa 0,0 mm 0,0 km/h (0 Bft) O-SO 112 0 min 0 UV-I 0 W/m 1,6 km/h (1 Bft)
05.10.2010 04:50 12,7 C 87 % 1002,2 hPa 0,0 mm 0,0 km/h (0 Bft) O-SO 112 0 min 0 UV-I 0 W/m 4,8 km/h (1 Bft)
05.10.2010 05:00 12,6 C 87 % 1002,4 hPa 0,0 mm 0,0 km/h (0 Bft) O-SO 112 0 min 0 UV-I 0 W/m 3,2 km/h (1 Bft)
05.10.2010 05:10 12,7 C 87 % 1002,4 hPa 0,0 mm 0,0 km/h (0 Bft) O-SO 112 0 min 0 UV-I 0 W/m 1,6 km/h (1 Bft)
05.10.2010 05:20 12,7 C 87 % 1002,5 hPa 0,0 mm 0,0 km/h (0 Bft) O-SO 112 0 min 0 UV-I 0 W/m 3,2 km/h (1 Bft)
05.10.2010 05:30 12,7 C 87 % 1002,5 hPa 0,0 mm 0,0 km/h (0 Bft) O-SO 112 0 min 0 UV-I 0 W/m 1,6 km/h (1 Bft)
05.10.2010 05:40 12,6 C 87 % 1002,5 hPa 0,0 mm 0,0 km/h (0 Bft) O-SO 112 0 min 0 UV-I 0 W/m 1,6 km/h (1 Bft)
05.10.2010 05:50 12,6 C 88 % 1002,5 hPa 0,0 mm 0,0 km/h (0 Bft) O-SO 112 0 min 0 UV-I 0 W/m 3,2 km/h (1 Bft)
05.10.2010 06:00 12,6 C 88 % 1002,5 hPa 0,0 mm 0,0 km/h (0 Bft) O-SO 112 0 min 0 UV-I 0 W/m 1,6 km/h (1 Bft)
05.10.2010 06:10 12,6 C 88 % 1002,5 hPa 0,0 mm 0,0 km/h (0 Bft) O-SO 112 0 min 0 UV-I 0 W/m 1,6 km/h (1 Bft)
05.10.2010 06:20 12,6 C 88 % 1002,5 hPa 0,0 mm 0,0 km/h (0 Bft) O-SO 112 0 min 0 UV-I 0 W/m 1,6 km/h (1 Bft)
05.10.2010 06:30 12,6 C 88 % 1002,6 hPa 0,0 mm 0,0 km/h (0 Bft) O-SO 112 0 min 0 UV-I 0 W/m 1,6 km/h (1 Bft)
05.10.2010 06:40 12,6 C 88 % 1002,6 hPa 0,0 mm 0,0 km/h (0 Bft) O-SO 112 0 min 0 UV-I 0 W/m 4,8 km/h (1 Bft)
05.10.2010 06:50 12,5 C 88 % 1002,7 hPa 0,0 mm 0,0 km/h (0 Bft) O-SO 112 0 min 0 UV-I 0 W/m 1,6 km/h (1 Bft)
05.10.2010 07:00 12,4 C 88 % 1002,7 hPa 0,0 mm 0,0 km/h (0 Bft) O-SO 112 0 min 0 UV-I 0 W/m 3,2 km/h (1 Bft)
05.10.2010 07:10 12,3 C 88 % 1002,8 hPa 0,0 mm 0,0 km/h (0 Bft) N 0 0 min 0 UV-I 0 W/m 0,0 km/h (0 Bft)
05.10.2010 07:20 12,2 C 89 % 1002,8 hPa 0,0 mm 0,0 km/h (0 Bft) O 90 0 min 0 UV-I 0 W/m 3,2 km/h (1 Bft)
05.10.2010 07:30 12,2 C 88 % 1003,2 hPa 0,0 mm 0,0 km/h (0 Bft) N 0 0 min 0 UV-I 7 W/m 0,0 km/h (0 Bft)
05.10.2010 07:40 12,2 C 89 % 1003,5 hPa 0,0 mm 0,0 km/h (0 Bft) O 90 0 min 0 UV-I 9 W/m 1,6 km/h (1 Bft)
05.10.2010 07:50 12,1 C 89 % 1003,6 hPa 0,0 mm 0,0 km/h (0 Bft) N 0 10 min 0 UV-I 23 W/m 0,0 km/h (0 Bft)
05.10.2010 08:00 11,9 C 89 % 1003,6 hPa 0,0 mm 0,0 km/h (0 Bft) O 99 0 min 0 UV-I 32 W/m 0,0 km/h (0 Bft)
05.10.2010 08:10 11,9 C 90 % 1003,8 hPa 0,0 mm 0,0 km/h (0 Bft) O 90 10 min 0 UV-I 51 W/m 1,6 km/h (1 Bft)
05.10.2010 08:20 12,1 C 90 % 1003,9 hPa 0,0 mm 0,0 km/h (0 Bft) O 90 10 min 0 UV-I 72 W/m 3,2 km/h (1 Bft)
05.10.2010 08:30 12,3 C 90 % 1003,9 hPa 0,0 mm 1,6 km/h (1 Bft) O 90 0 min 0 UV-I 67 W/m 4,8 km/h (1 Bft)
05.10.2010 08:40 12,5 C 89 % 1003,9 hPa 0,0 mm 1,6 km/h (1 Bft) O-SO 112 0 min 0 UV-I 62 W/m 6,4 km/h (2 Bft)
05.10.2010 08:50 12,7 C 89 % 1003,9 hPa 0,0 mm 1,6 km/h (1 Bft) O-SO 112 0 min 0 UV-I 67 W/m 6,4 km/h (2 Bft)
05.10.2010 09:00 12,9 C 89 % 1003,9 hPa 0,0 mm 1,6 km/h (1 Bft) O 90 0 min 1 UV-I 83 W/m 6,4 km/h (2 Bft)
05.10.2010 09:10 13,2 C 88 % 1004,0 hPa 0,0 mm 0,0 km/h (0 Bft) O-NO 67 0 min 1 UV-I 88 W/m 4,8 km/h (1 Bft)
05.10.2010 09:20 13,4 C 87 % 1004,0 hPa 0,0 mm 0,0 km/h (0 Bft) O 90 0 min 1 UV-I 104 W/m 3,2 km/h (1 Bft)
05.10.2010 09:30 13,7 C 87 % 1004,4 hPa 0,0 mm 0,0 km/h (0 Bft) O 90 10 min 1 UV-I 220 W/m 4,8 km/h (1 Bft)
05.10.2010 09:40 14,4 C 85 % 1004,1 hPa 0,0 mm 0,0 km/h (0 Bft) O 90 10 min 1 UV-I 297 W/m 4,8 km/h (1 Bft)
05.10.2010 09:50 15,1 C 83 % 1004,0 hPa 0,0 mm 1,6 km/h (1 Bft) N-NO 22 10 min 1 UV-I 295 W/m 6,4 km/h (2 Bft)
05.10.2010 10:00 15,3 C 83 % 1004,2 hPa 0,0 mm 1,6 km/h (1 Bft) O-NO 67 10 min 1 UV-I 232 W/m 6,4 km/h (2 Bft)
05.10.2010 10:10 15,4 C 83 % 1004,3 hPa 0,0 mm 1,6 km/h (1 Bft) O 90 0 min 1 UV-I 197 W/m 4,8 km/h (1 Bft)
05.10.2010 10:20 15,6 C 82 % 1004,6 hPa 0,0 mm 0,0 km/h (0 Bft) O 90 0 min 1 UV-I 181 W/m 3,2 km/h (1 Bft)
05.10.2010 10:30 15,8 C 82 % 1004,7 hPa 0,0 mm 0,0 km/h (0 Bft) O 90 0 min 1 UV-I 160 W/m 1,6 km/h (1 Bft)
05.10.2010 10:40 15,9 C 82 % 1004,7 hPa 0,0 mm 0,0 km/h (0 Bft) O 90 0 min 1 UV-I 199 W/m 3,2 km/h (1 Bft)
05.10.2010 10:50 16,2 C 81 % 1005,0 hPa 0,0 mm 1,6 km/h (1 Bft) O 90 10 min 2 UV-I 341 W/m 6,4 km/h (2 Bft)
05.10.2010 11:00 16,8 C 79 % 1004,7 hPa 0,0 mm 1,6 km/h (1 Bft) O-SO 112 10 min 2 UV-I 410 W/m 6,4 km/h (2 Bft)
05.10.2010 11:10 17,2 C 79 % 1004,9 hPa 0,0 mm 1,6 km/h (1 Bft) O-SO 112 10 min 2 UV-I 334 W/m 4,8 km/h (1 Bft)
05.10.2010 11:20 17,4 C 77 % 1004,7 hPa 0,0 mm 0,0 km/h (0 Bft) O-SO 112 10 min 2 UV-I 360 W/m 6,4 km/h (2 Bft)
05.10.2010 11:30 17,3 C 78 % 1004,7 hPa 0,0 mm 0,0 km/h (0 Bft) O-SO 112 0 min 2 UV-I 264 W/m 4,8 km/h (1 Bft)
05.10.2010 11:40 17,8 C 77 % 1004,8 hPa 0,0 mm 0,0 km/h (0 Bft) SO 135 10 min 3 UV-I 624 W/m 6,4 km/h (2 Bft)
05.10.2010 11:50 18,5 C 74 % 1004,8 hPa 0,0 mm 1,6 km/h (1 Bft) S 180 10 min 3 UV-I 613 W/m 8,0 km/h (2 Bft)
05.10.2010 12:00 18,7 C 74 % 1004,9 hPa 0,0 mm 1,6 km/h (1 Bft) S 180 10 min 2 UV-I 341 W/m 4,8 km/h (1 Bft)
05.10.2010 12:10 18,7 C 74 % 1005,0 hPa 0,0 mm 0,0 km/h (0 Bft) S 180 10 min 3 UV-I 626 W/m 1,6 km/h (1 Bft)
05.10.2010 12:20 19,4 C 73 % 1005,0 hPa 0,0 mm 1,6 km/h (1 Bft) SO 135 10 min 3 UV-I 715 W/m 8,0 km/h (2 Bft)
05.10.2010 12:30 19,8 C 70 % 1005,1 hPa 0,0 mm 1,6 km/h (1 Bft) W 270 10 min 3 UV-I 663 W/m 9,7 km/h (2 Bft)
05.10.2010 12:40 19,6 C 71 % 1005,1 hPa 0,0 mm 1,6 km/h (1 Bft) W 270 10 min 3 UV-I 571 W/m 8,0 km/h (2 Bft)
05.10.2010 12:50 19,9 C 70 % 1005,1 hPa 0,0 mm 1,6 km/h (1 Bft) W-SW 247 10 min 3 UV-I 563 W/m 8,0 km/h (2 Bft)
05.10.2010 13:00 19,9 C 71 % 1005,1 hPa 0,0 mm 3,2 km/h (1 Bft) W 270 10 min 3 UV-I 557 W/m 9,7 km/h (2 Bft)
05.10.2010 13:10 20,3 C 70 % 1005,3 hPa 0,0 mm 0,0 km/h (0 Bft) W-SW 247 10 min 3 UV-I 564 W/m 4,8 km/h (1 Bft)
05.10.2010 13:20 20,7 C 69 % 1005,2 hPa 0,0 mm 3,2 km/h (1 Bft) W-SW 247 10 min 3 UV-I 580 W/m 9,7 km/h (2 Bft)
05.10.2010 13:30 20,4 C 70 % 1005,3 hPa 0,0 mm 3,2 km/h (1 Bft) W-SW 247 10 min 3 UV-I 661 W/m 11,3 km/h (2 Bft)
05.10.2010 13:40 19,9 C 72 % 1005,2 hPa 0,0 mm 1,6 km/h (1 Bft) W-SW 247 0 min 2 UV-I 183 W/m 8,0 km/h (2 Bft)
05.10.2010 13:50 19,7 C 72 % 1005,3 hPa 0,0 mm 0,0 km/h (0 Bft) W-SW 247 0 min 1 UV-I 174 W/m 4,8 km/h (1 Bft)
05.10.2010 14:00 19,7 C 72 % 1005,2 hPa 0,0 mm 0,0 km/h (0 Bft) W-SW 247 10 min 2 UV-I 301 W/m 4,8 km/h (1 Bft)
05.10.2010 14:10 20,2 C 71 % 1005,2 hPa 0,0 mm 1,6 km/h (1 Bft) W-SW 247 10 min 3 UV-I 591 W/m 8,0 km/h (2 Bft)
05.10.2010 14:20 20,3 C 71 % 1005,3 hPa 0,0 mm 1,6 km/h (1 Bft) SW 225 10 min 2 UV-I 301 W/m 8,0 km/h (2 Bft)
05.10.2010 14:30 20,1 C 71 % 1005,4 hPa 0,0 mm 1,6 km/h (1 Bft) W 270 0 min 2 UV-I 192 W/m 8,0 km/h (2 Bft)
05.10.2010 14:40 20,0 C 72 % 1005,5 hPa 0,0 mm 0,0 km/h (0 Bft) W-SW 247 0 min 2 UV-I 246 W/m 8,0 km/h (2 Bft)
05.10.2010 14:50 20,1 C 71 % 1005,6 hPa 0,0 mm 3,2 km/h (1 Bft) W 270 10 min 2 UV-I 288 W/m 11,3 km/h (2 Bft)
05.10.2010 15:00 20,0 C 72 % 1005,7 hPa 0,0 mm 1,6 km/h (1 Bft) SW 225 10 min 2 UV-I 350 W/m 6,4 km/h (2 Bft)
05.10.2010 15:10 19,9 C 73 % 1005,7 hPa 0,0 mm 1,6 km/h (1 Bft) W-SW 247 0 min 1 UV-I 137 W/m 6,4 km/h (2 Bft)
05.10.2010 15:20 19,8 C 74 % 1005,8 hPa 0,0 mm 1,6 km/h (1 Bft) W-SW 247 0 min 1 UV-I 146 W/m 6,4 km/h (2 Bft)
05.10.2010 15:30 19,6 C 74 % 1005,9 hPa 0,0 mm 1,6 km/h (1 Bft) W-SW 247 0 min 1 UV-I 128 W/m 9,7 km/h (2 Bft)
05.10.2010 15:40 19,4 C 75 % 1005,9 hPa 0,0 mm 1,6 km/h (1 Bft) W 270 0 min 1 UV-I 156 W/m 8,0 km/h (2 Bft)
05.10.2010 15:50 19,4 C 74 % 1005,9 hPa 0,0 mm 1,6 km/h (1 Bft) W 270 0 min 1 UV-I 156 W/m 4,8 km/h (1 Bft)
05.10.2010 16:00 19,3 C 74 % 1005,9 hPa 0,0 mm 1,5 km/h (1 Bft) W 264 0 min 1 UV-I 90 W/m 4,8 km/h (1 Bft)
05.10.2010 16:10 19,3 C 74 % 1006,0 hPa 0,0 mm 1,6 km/h (1 Bft) W 270 0 min 1 UV-I 77 W/m 6,4 km/h (2 Bft)
05.10.2010 16:20 19,2 C 75 % 1006,1 hPa 0,0 mm 0,0 km/h (0 Bft) W 270 0 min 1 UV-I 70 W/m 4,8 km/h (1 Bft)
05.10.2010 16:30 19,1 C 77 % 1006,1 hPa 0,0 mm 0,0 km/h (0 Bft) W 270 0 min 0 UV-I 37 W/m 1,6 km/h (1 Bft)
05.10.2010 16:40 18,8 C 78 % 1006,0 hPa 0,0 mm 0,0 km/h (0 Bft) N 0 0 min 0 UV-I 46 W/m 0,0 km/h (0 Bft)
05.10.2010 16:50 18,7 C 78 % 1006,3 hPa 0,0 mm 0,0 km/h (0 Bft) W 270 0 min 0 UV-I 67 W/m 1,6 km/h (1 Bft)
05.10.2010 17:00 18,8 C 78 % 1006,2 hPa 0,0 mm 0,0 km/h (0 Bft) N 0 0 min 0 UV-I 70 W/m 0,0 km/h (0 Bft)
05.10.2010 17:10 18,9 C 75 % 1006,4 hPa 0,0 mm 0,0 km/h (0 Bft) SW 225 0 min 0 UV-I 56 W/m 6,4 km/h (2 Bft)
05.10.2010 17:20 18,9 C 74 % 1006,4 hPa 0,0 mm 0,0 km/h (0 Bft) SW 225 0 min 0 UV-I 40 W/m 1,6 km/h (1 Bft)
05.10.2010 17:30 18,9 C 74 % 1006,6 hPa 0,0 mm 0,0 km/h (0 Bft) SW 225 0 min 0 UV-I 44 W/m 4,8 km/h (1 Bft)
05.10.2010 17:40 18,8 C 76 % 1006,6 hPa 0,0 mm 0,0 km/h (0 Bft) SW 225 0 min 0 UV-I 51 W/m 1,6 km/h (1 Bft)
05.10.2010 17:50 18,7 C 76 % 1006,6 hPa 0,0 mm 0,0 km/h (0 Bft) N 0 10 min 0 UV-I 91 W/m 0,0 km/h (0 Bft)
05.10.2010 18:00 18,9 C 76 % 1006,6 hPa 0,0 mm 0,0 km/h (0 Bft) SW 225 10 min 0 UV-I 172 W/m 1,6 km/h (1 Bft)
05.10.2010 18:10 19,2 C 75 % 1006,6 hPa 0,0 mm 0,0 km/h (0 Bft) SW 225 10 min 0 UV-I 162 W/m 1,6 km/h (1 Bft)
05.10.2010 18:20 19,0 C 76 % 1006,6 hPa 0,0 mm 0,0 km/h (0 Bft) SW 225 10 min 0 UV-I 46 W/m 1,6 km/h (1 Bft)
05.10.2010 18:30 18,4 C 77 % 1006,6 hPa 0,0 mm 0,0 km/h (0 Bft) SW 225 0 min 0 UV-I 21 W/m 1,6 km/h (1 Bft)
05.10.2010 18:40 18,2 C 78 % 1006,9 hPa 0,0 mm 0,0 km/h (0 Bft) N 0 10 min 0 UV-I 14 W/m 0,0 km/h (0 Bft)
05.10.2010 18:50 17,8 C 80 % 1007,1 hPa 0,0 mm 0,0 km/h (0 Bft) N 0 0 min 0 UV-I 11 W/m 0,0 km/h (0 Bft)
05.10.2010 19:00 17,6 C 82 % 1007,1 hPa 0,0 mm 0,0 km/h (0 Bft) N 0 0 min 0 UV-I 0 W/m 0,0 km/h (0 Bft)
05.10.2010 19:10 17,2 C 83 % 1007,3 hPa 0,0 mm 0,0 km/h (0 Bft) N 0 0 min 0 UV-I 0 W/m 0,0 km/h (0 Bft)
05.10.2010 19:20 16,9 C 84 % 1007,4 hPa 0,0 mm 0,0 km/h (0 Bft) N 0 0 min 0 UV-I 0 W/m 0,0 km/h (0 Bft)
05.10.2010 19:30 16,7 C 84 % 1007,5 hPa 0,0 mm 0,0 km/h (0 Bft) SW 225 0 min 0 UV-I 0 W/m 1,6 km/h (1 Bft)
05.10.2010 19:40 16,6 C 85 % 1007,6 hPa 0,0 mm 0,0 km/h (0 Bft) SW 225 0 min 0 UV-I 0 W/m 1,6 km/h (1 Bft)
05.10.2010 19:50 16,6 C 85 % 1007,6 hPa 0,0 mm 0,0 km/h (0 Bft) SW 225 0 min 0 UV-I 0 W/m 1,6 km/h (1 Bft)
05.10.2010 20:00 16,5 C 85 % 1007,6 hPa 0,0 mm 0,0 km/h (0 Bft) SW 225 0 min 0 UV-I 0 W/m 1,6 km/h (1 Bft)
05.10.2010 20:10 16,4 C 86 % 1007,7 hPa 0,0 mm 0,0 km/h (0 Bft) SW 225 0 min 0 UV-I 0 W/m 1,6 km/h (1 Bft)
05.10.2010 20:20 16,3 C 86 % 1007,7 hPa 0,0 mm 0,0 km/h (0 Bft) N 0 0 min 0 UV-I 0 W/m 0,0 km/h (0 Bft)
05.10.2010 20:30 16,3 C 87 % 1007,8 hPa 0,0 mm 0,0 km/h (0 Bft) SW 225 0 min 0 UV-I 0 W/m 3,2 km/h (1 Bft)
05.10.2010 20:40 16,4 C 86 % 1008,0 hPa 0,0 mm 0,0 km/h (0 Bft) SW 225 0 min 0 UV-I 0 W/m 1,6 km/h (1 Bft)
05.10.2010 20:50 16,6 C 86 % 1008,1 hPa 0,0 mm 0,0 km/h (0 Bft) SW 225 0 min 0 UV-I 0 W/m 1,6 km/h (1 Bft)
05.10.2010 21:00 16,4 C 87 % 1008,2 hPa 0,0 mm 0,0 km/h (0 Bft) SW 225 0 min 0 UV-I 0 W/m 1,6 km/h (1 Bft)
05.10.2010 21:10 16,5 C 86 % 1008,1 hPa 0,0 mm 0,0 km/h (0 Bft) SW 225 0 min 0 UV-I 0 W/m 1,6 km/h (1 Bft)
05.10.2010 21:20 16,4 C 86 % 1008,2 hPa 0,0 mm 0,0 km/h (0 Bft) SW 225 0 min 0 UV-I 0 W/m 1,6 km/h (1 Bft)
05.10.2010 21:30 16,3 C 87 % 1008,3 hPa 0,0 mm 0,0 km/h (0 Bft) SW 225 0 min 0 UV-I 0 W/m 1,6 km/h (1 Bft)
05.10.2010 21:40 16,2 C 87 % 1008,5 hPa 0,0 mm 0,0 km/h (0 Bft) SW 225 0 min 0 UV-I 0 W/m 1,6 km/h (1 Bft)
05.10.2010 21:50 16,0 C 87 % 1008,4 hPa 0,0 mm 0,0 km/h (0 Bft) N 0 0 min 0 UV-I 0 W/m 0,0 km/h (0 Bft)
05.10.2010 22:00 15,7 C 87 % 1008,6 hPa 0,0 mm 0,0 km/h (0 Bft) N 0 0 min 0 UV-I 0 W/m 0,0 km/h (0 Bft)
05.10.2010 22:10 15,2 C 88 % 1008,6 hPa 0,0 mm 0,0 km/h (0 Bft) N 0 0 min 0 UV-I 0 W/m 0,0 km/h (0 Bft)
05.10.2010 22:20 14,8 C 89 % 1008,6 hPa 0,0 mm 0,0 km/h (0 Bft) N 0 0 min 0 UV-I 0 W/m 0,0 km/h (0 Bft)
05.10.2010 22:30 14,6 C 90 % 1008,7 hPa 0,0 mm 0,0 km/h (0 Bft) N 0 0 min 0 UV-I 0 W/m 0,0 km/h (0 Bft)
05.10.2010 22:40 14,4 C 90 % 1008,7 hPa 0,0 mm 0,0 km/h (0 Bft) N 0 0 min 0 UV-I 0 W/m 0,0 km/h (0 Bft)
05.10.2010 22:50 14,3 C 90 % 1008,6 hPa 0,0 mm 0,0 km/h (0 Bft) N 0 0 min 0 UV-I 0 W/m 0,0 km/h (0 Bft)
05.10.2010 23:00 14,0 C 91 % 1008,7 hPa 0,0 mm 0,0 km/h (0 Bft) N 0 0 min 0 UV-I 0 W/m 0,0 km/h (0 Bft)
05.10.2010 23:10 13,9 C 91 % 1008,7 hPa 0,0 mm 0,0 km/h (0 Bft) SW 225 0 min 0 UV-I 0 W/m 1,6 km/h (1 Bft)
05.10.2010 23:20 13,8 C 91 % 1008,7 hPa 0,0 mm 0,0 km/h (0 Bft) SW 225 0 min 0 UV-I 0 W/m 1,6 km/h (1 Bft)
05.10.2010 23:30 13,7 C 91 % 1008,7 hPa 0,0 mm 0,0 km/h (0 Bft) N 0 0 min 0 UV-I 0 W/m 0,0 km/h (0 Bft)
05.10.2010 23:40 13,6 C 92 % 1008,8 hPa 0,0 mm 0,0 km/h (0 Bft) N 0 0 min 0 UV-I 0 W/m 0,0 km/h (0 Bft)
05.10.2010 23:50 13,7 C 92 % 1008,8 hPa 0,0 mm 0,0 km/h (0 Bft) SW 225 0 min 0 UV-I 0 W/m 1,6 km/h (1 Bft)
_ Min-Zeit 02:10 13:20 03:00 - 01:30 - - - - - 02:00
Minimum _ 11,8 C 69 % 1001,9 hPa - 0,0 km/h (0 Bft) - - - - - 0,0 km/h (0 Bft)
_ Max-Zeit 13:20 23:40 23:40 00:00 01:00 - - 07:50 12:20 12:20 00:50
Maximum _ 20,8 C 92 % 1008,8 hPa 0,0 mm 4,8 km/h
O-SO (1 Bft)
- - 10 min 3 UV-I 715 W/m 16,1 km/h
O (3 Bft)
Durchschnitt _ 15,6 C 82 % 1004,9 hPa #0,0 mm 0,7 km/h (0 Bft) O-SO - #5:30 h 2 UV-I 228 W/m 4,1 km/h (1 Bft)